Time,TemperatureF,DewpointF,PressureIn,WindDirection,WindDirectionDegrees,WindSpeedMPH,WindSpeedGustMPH,Humidity,HourlyPrecipIn,Conditions,Clouds,dailyrainin,SoftwareType,DateUTC
2013-01-06 00:10:00,26.6,24.0,29.74,NNE,19,6.0,7.0,90,0.00,,,0.00,weatherlink.com 1.10,2013-01-06 05:10:00,
2013-01-06 00:25:00,26.5,24.0,29.74,NE,46,5.0,7.0,90,0.00,,,0.00,weatherlink.com 1.10,2013-01-06 05:25:00,
2013-01-06 00:40:00,26.5,24.0,29.73,East,91,4.0,6.0,90,0.00,,,0.00,weatherlink.com 1.10,2013-01-06 05:40:00,
2013-01-06 00:55:00,26.5,24.0,29.73,East,81,1.0,6.0,90,0.00,,,0.00,weatherlink.com 1.10,2013-01-06 05:55:00,
2013-01-06 01:10:00,26.5,24.0,29.73,East,79,4.0,5.0,89,0.00,,,0.00,weatherlink.com 1.10,2013-01-06 06:10:00,
2013-01-06 01:25:00,26.3,24.0,29.72,ENE,63,3.0,6.0,90,0.00,,,0.00,weatherlink.com 1.10,2013-01-06 06:25:00,
2013-01-06 01:40:00,26.3,24.0,29.72,NE,51,4.0,5.0,90,0.00,,,0.00,weatherlink.com 1.10,2013-01-06 06:40:00,
2013-01-06 01:55:00,26.2,24.0,29.71,ENE,74,2.0,4.0,91,0.00,,,0.00,weatherlink.com 1.10,2013-01-06 06:55:00,
2013-01-06 02:10:00,26.1,24.0,29.71,East,95,3.0,4.0,92,0.00,,,0.00,weatherlink.com 1.10,2013-01-06 07:10:00,
2013-01-06 02:25:00,26.0,24.0,29.71,ESE,123,3.0,5.0,93,0.00,,,0.00,weatherlink.com 1.10,2013-01-06 07:25:00,
2013-01-06 02:40:00,26.1,25.0,29.71,East,83,3.0,5.0,94,0.00,,,0.00,weatherlink.com 1.10,2013-01-06 07:40:00,
2013-01-06 02:55:00,26.1,25.0,29.71,ENE,68,2.0,3.0,94,0.00,,,0.00,weatherlink.com 1.10,2013-01-06 07:55:00,
2013-01-06 03:10:00,26.1,25.0,29.72,NE,37,2.0,3.0,94,0.00,,,0.00,weatherlink.com 1.10,2013-01-06 08:10:00,
2013-01-06 03:25:00,26.2,25.0,29.72,NE,46,3.0,3.0,95,0.00,,,0.00,weatherlink.com 1.10,2013-01-06 08:25:00,
2013-01-06 03:40:00,26.1,25.0,29.72,ENE,63,2.0,3.0,95,0.00,,,0.00,weatherlink.com 1.10,2013-01-06 08:40:00,
2013-01-06 03:55:00,26.2,25.0,29.71,East,82,3.0,4.0,95,0.00,,,0.00,weatherlink.com 1.10,2013-01-06 08:55:00,
2013-01-06 04:10:00,26.3,25.0,29.71,NE,46,2.0,4.0,95,0.00,,,0.00,weatherlink.com 1.10,2013-01-06 09:10:00,
2013-01-06 04:25:00,26.2,25.0,29.70,ENE,61,1.0,5.0,95,0.00,,,0.00,weatherlink.com 1.10,2013-01-06 09:25:00,
2013-01-06 04:40:00,26.1,25.0,29.70,ENE,71,2.0,3.0,95,0.00,,,0.00,weatherlink.com 1.10,2013-01-06 09:40:00,
2013-01-06 04:55:00,25.9,24.0,29.70,NNE,32,4.0,5.0,94,0.00,,,0.00,weatherlink.com 1.10,2013-01-06 09:55:00,
2013-01-06 05:10:00,25.9,25.0,29.70,NNE,23,2.0,5.0,95,0.00,,,0.00,weatherlink.com 1.10,2013-01-06 10:10:00,
2013-01-06 05:25:00,25.8,24.0,29.70,NE,39,3.0,5.0,94,0.00,,,0.00,weatherlink.com 1.10,2013-01-06 10:25:00,
2013-01-06 05:40:00,25.9,24.0,29.70,NNE,12,5.0,6.0,94,0.00,,,0.00,weatherlink.com 1.10,2013-01-06 10:40:00,
2013-01-06 05:55:00,26.0,25.0,29.71,NNE,31,5.0,7.0,94,0.00,,,0.00,weatherlink.com 1.10,2013-01-06 10:55:00,
2013-01-06 06:10:00,26.0,25.0,29.71,NE,37,5.0,8.0,94,0.00,,,0.00,weatherlink.com 1.10,2013-01-06 11:10:00,
2013-01-06 06:25:00,26.1,25.0,29.72,North,8,2.0,6.0,94,0.00,,,0.00,weatherlink.com 1.10,2013-01-06 11:25:00,
2013-01-06 06:40:00,26.2,25.0,29.72,NNE,30,6.0,7.0,94,0.00,,,0.00,weatherlink.com 1.10,2013-01-06 11:40:00,
2013-01-06 06:55:00,26.3,25.0,29.73,NNE,29,5.0,7.0,94,0.00,,,0.00,weatherlink.com 1.10,2013-01-06 11:55:00,
2013-01-06 07:10:00,26.4,25.0,29.74,NNE,20,8.0,9.0,93,0.00,,,0.00,weatherlink.com 1.10,2013-01-06 12:10:00,
2013-01-06 07:26:00,26.2,24.0,29.75,NE,35,9.0,9.0,92,0.00,,,0.00,weatherlink.com 1.10,2013-01-06 12:26:00,
2013-01-06 07:41:00,25.8,24.0,29.75,North,360,5.0,7.0,92,0.00,,,0.00,weatherlink.com 1.10,2013-01-06 12:41:00,
2013-01-06 07:56:00,25.4,23.0,29.76,North,3,7.0,8.0,92,0.00,,,0.00,weatherlink.com 1.10,2013-01-06 12:56:00,
2013-01-06 08:11:00,25.2,23.0,29.77,NNE,25,11.0,11.0,92,0.00,,,0.00,weatherlink.com 1.10,2013-01-06 13:11:00,
2013-01-06 08:26:00,25.0,23.0,29.78,NNE,13,9.0,12.0,92,0.00,,,0.00,weatherlink.com 1.10,2013-01-06 13:26:00,
2013-01-06 08:41:00,24.7,23.0,29.78,NNE,29,9.0,11.0,92,0.00,,,0.00,weatherlink.com 1.10,2013-01-06 13:41:00,
2013-01-06 08:56:00,24.4,22.0,29.79,NE,46,9.0,10.0,91,0.00,,,0.00,weatherlink.com 1.10,2013-01-06 13:56:00,
2013-01-06 09:11:00,24.3,22.0,29.80,NNE,23,6.0,8.0,91,0.00,,,0.00,weatherlink.com 1.10,2013-01-06 14:11:00,
2013-01-06 09:26:00,24.0,22.0,29.81,NE,46,7.0,7.0,92,0.00,,,0.00,weatherlink.com 1.10,2013-01-06 14:26:00,
2013-01-06 09:41:00,24.2,22.0,29.81,NE,39,6.0,9.0,90,0.00,,,0.00,weatherlink.com 1.10,2013-01-06 14:41:00,
2013-01-06 09:56:00,24.2,22.0,29.82,NNE,18,8.0,9.0,89,0.00,,,0.00,weatherlink.com 1.10,2013-01-06 14:56:00,
2013-01-06 10:11:00,24.2,21.0,29.83,NNE,20,6.0,11.0,88,0.00,,,0.00,weatherlink.com 1.10,2013-01-06 15:11:00,
2013-01-06 10:26:00,24.4,21.0,29.84,North,8,7.0,9.0,86,0.00,,,0.00,weatherlink.com 1.10,2013-01-06 15:26:00,
2013-01-06 10:41:00,24.7,21.0,29.84,NE,36,8.0,8.0,85,0.00,,,0.00,weatherlink.com 1.10,2013-01-06 15:41:00,
2013-01-06 10:56:00,25.4,21.0,29.85,North,360,8.0,11.0,84,0.00,,,0.00,weatherlink.com 1.10,2013-01-06 15:56:00,
2013-01-06 11:11:00,25.2,20.0,29.85,NNE,30,9.0,11.0,82,0.00,,,0.00,weatherlink.com 1.10,2013-01-06 16:11:00,
2013-01-06 11:26:00,25.1,21.0,29.86,North,358,7.0,12.0,83,0.00,,,0.00,weatherlink.com 1.10,2013-01-06 16:26:00,
2013-01-06 11:41:00,25.2,21.0,29.86,NNE,18,7.0,11.0,83,0.00,,,0.00,weatherlink.com 1.10,2013-01-06 16:41:00,
2013-01-06 11:56:00,25.4,21.0,29.85,NNE,12,9.0,12.0,83,0.00,,,0.00,weatherlink.com 1.10,2013-01-06 16:56:00,
2013-01-06 12:11:00,25.5,20.0,29.86,NE,42,6.0,9.0,81,0.00,,,0.00,weatherlink.com 1.10,2013-01-06 17:11:00,
2013-01-06 12:26:00,25.7,20.0,29.86,North,349,5.0,9.0,79,0.00,,,0.00,weatherlink.com 1.10,2013-01-06 17:26:00,
2013-01-06 12:41:00,26.4,20.0,29.87,North,354,7.0,11.0,78,0.00,,,0.00,weatherlink.com 1.10,2013-01-06 17:41:00,
2013-01-06 12:56:00,25.7,19.0,29.87,NNW,340,8.0,10.0,75,0.00,,,0.00,weatherlink.com 1.10,2013-01-06 17:56:00,
2013-01-06 13:11:00,25.7,18.0,29.88,North,354,11.0,13.0,74,0.00,,,0.00,weatherlink.com 1.10,2013-01-06 18:11:00,
2013-01-06 13:26:00,25.8,19.0,29.88,NNW,348,8.0,11.0,75,0.00,,,0.00,weatherlink.com 1.10,2013-01-06 18:26:00,
2013-01-06 13:41:00,25.8,19.0,29.89,North,7,9.0,10.0,75,0.00,,,0.00,weatherlink.com 1.10,2013-01-06 18:41:00,
2013-01-06 13:56:00,25.5,18.0,29.89,North,5,7.0,10.0,74,0.00,,,0.00,weatherlink.com 1.10,2013-01-06 18:56:00,
2013-01-06 14:11:00,25.7,18.0,29.90,North,1,5.0,10.0,73,0.00,,,0.00,weatherlink.com 1.10,2013-01-06 19:11:00,
2013-01-06 14:27:00,25.7,18.0,29.91,NNE,24,9.0,9.0,73,0.00,,,0.00,weatherlink.com 1.10,2013-01-06 19:27:00,
2013-01-06 14:57:00,25.9,18.0,29.91,NNE,24,8.0,9.0,72,0.00,,,0.00,weatherlink.com 1.10,2013-01-06 19:57:00,
2013-01-06 15:12:00,25.9,18.0,29.92,NNE,13,5.0,8.0,71,0.00,,,0.00,weatherlink.com 1.10,2013-01-06 20:12:00,
2013-01-06 15:27:00,26.1,18.0,29.93,North,349,4.0,7.0,70,0.00,,,0.00,weatherlink.com 1.10,2013-01-06 20:27:00,
2013-01-06 15:42:00,26.1,18.0,29.94,NNE,27,6.0,6.0,70,0.00,,,0.00,weatherlink.com 1.10,2013-01-06 20:42:00,
2013-01-06 15:57:00,25.5,17.0,29.95,NNW,347,3.0,7.0,71,0.00,,,0.00,weatherlink.com 1.10,2013-01-06 20:57:00,
2013-01-06 16:12:00,24.9,17.0,29.97,NW,317,1.0,5.0,71,0.00,,,0.00,weatherlink.com 1.10,2013-01-06 21:12:00,
2013-01-06 16:27:00,24.2,16.0,29.98,NNW,345,1.0,3.0,72,0.00,,,0.00,weatherlink.com 1.10,2013-01-06 21:27:00,
2013-01-06 16:42:00,23.9,16.0,29.98,North,349,1.0,2.0,73,0.00,,,0.00,weatherlink.com 1.10,2013-01-06 21:42:00,
2013-01-06 16:57:00,23.3,17.0,29.99,WNW,298,1.0,1.0,75,0.00,,,0.00,weatherlink.com 1.10,2013-01-06 21:57:00,
2013-01-06 17:12:00,22.5,16.0,30.00,NW,317,0.0,1.0,76,0.00,,,0.00,weatherlink.com 1.10,2013-01-06 22:12:00,
2013-01-06 17:27:00,21.8,16.0,30.01,West,261,0.0,1.0,77,0.00,,,0.00,weatherlink.com 1.10,2013-01-06 22:27:00,
2013-01-06 17:42:00,21.1,16.0,30.02,West,270,0.0,1.0,79,0.00,,,0.00,weatherlink.com 1.10,2013-01-06 22:42:00,
2013-01-06 17:57:00,19.6,14.0,30.03,WSW,250,1.0,1.0,80,0.00,,,0.00,weatherlink.com 1.10,2013-01-06 22:57:00,
2013-01-06 18:12:00,18.3,14.0,30.04,WSW,257,0.0,0.0,84,0.00,,,0.00,weatherlink.com 1.10,2013-01-06 23:12:00,
2013-01-06 18:27:00,19.7,15.0,30.04,West,259,0.0,1.0,82,0.00,,,0.00,weatherlink.com 1.10,2013-01-06 23:27:00,
2013-01-06 18:42:00,19.7,15.0,30.05,West,259,0.0,0.0,82,0.00,,,0.00,weatherlink.com 1.10,2013-01-06 23:42:00,
2013-01-06 18:57:00,20.5,16.0,30.05,NW,316,0.0,1.0,82,0.00,,,0.00,weatherlink.com 1.10,2013-01-06 23:57:00,
2013-01-06 19:12:00,22.8,16.0,30.06,NE,39,2.0,4.0,76,0.00,,,0.00,weatherlink.com 1.10,2013-01-07 00:12:00,
2013-01-06 19:27:00,23.2,16.0,30.07,NNE,25,3.0,5.0,74,0.00,,,0.00,weatherlink.com 1.10,2013-01-07 00:27:00,
2013-01-06 19:43:00,23.1,15.0,30.07,NE,34,1.0,5.0,72,0.00,,,0.00,weatherlink.com 1.10,2013-01-07 00:43:00,
2013-01-06 19:57:00,22.9,15.0,30.07,NNE,25,1.0,4.0,72,0.00,,,0.00,weatherlink.com 1.10,2013-01-07 00:57:00,
2013-01-06 20:13:00,22.7,15.0,30.08,NNE,29,1.0,3.0,71,0.00,,,0.00,weatherlink.com 1.10,2013-01-07 01:13:00,
2013-01-06 20:28:00,22.6,15.0,30.09,East,90,2.0,3.0,71,0.00,,,0.00,weatherlink.com 1.10,2013-01-07 01:28:00,
2013-01-06 20:43:00,22.2,14.0,30.09,ENE,72,4.0,5.0,72,0.00,,,0.00,weatherlink.com 1.10,2013-01-07 01:43:00,
2013-01-06 20:58:00,21.9,15.0,30.09,East,85,5.0,6.0,74,0.00,,,0.00,weatherlink.com 1.10,2013-01-07 01:58:00,
2013-01-06 21:13:00,21.2,14.0,30.09,East,91,5.0,7.0,73,0.00,,,0.00,weatherlink.com 1.10,2013-01-07 02:13:00,
2013-01-06 21:28:00,20.8,14.0,30.09,East,94,7.0,8.0,74,0.00,,,0.00,weatherlink.com 1.10,2013-01-07 02:28:00,
2013-01-06 21:43:00,20.3,13.0,30.10,East,95,4.0,7.0,73,0.00,,,0.00,weatherlink.com 1.10,2013-01-07 02:43:00,
2013-01-06 21:58:00,20.0,13.0,30.11,ESE,116,2.0,4.0,73,0.00,,,0.00,weatherlink.com 1.10,2013-01-07 02:58:00,
2013-01-06 22:13:00,19.9,13.0,30.10,East,82,1.0,6.0,73,0.00,,,0.00,weatherlink.com 1.10,2013-01-07 03:13:00,
2013-01-06 22:28:00,19.8,12.0,30.11,East,91,3.0,6.0,73,0.00,,,0.00,weatherlink.com 1.10,2013-01-07 03:28:00,
2013-01-06 22:43:00,19.5,12.0,30.11,ENE,63,6.0,6.0,73,0.00,,,0.00,weatherlink.com 1.10,2013-01-07 03:43:00,
2013-01-06 22:58:00,19.3,12.0,30.12,East,89,5.0,8.0,74,0.00,,,0.00,weatherlink.com 1.10,2013-01-07 03:58:00,
2013-01-06 23:13:00,19.1,11.0,30.13,East,79,3.0,8.0,72,0.00,,,0.00,weatherlink.com 1.10,2013-01-07 04:13:00,
2013-01-06 23:28:00,18.9,12.0,30.14,ENE,58,2.0,5.0,73,0.00,,,0.00,weatherlink.com 1.10,2013-01-07 04:28:00,
2013-01-06 23:43:00,18.8,12.0,30.13,East,96,1.0,5.0,74,0.00,,,0.00,weatherlink.com 1.10,2013-01-07 04:43:00,
2013-01-06 23:58:00,18.7,12.0,30.14,ESE,102,4.0,5.0,74,0.00,,,0.00,weatherlink.com 1.10,2013-01-07 04:58:00,